Regional Weather Roundup
Issued by NWS

Home | Current Version | Previous Version | Text Only | Print | Product List | Glossary Off
Versions: 1 2 3 4 5 6 7 8 9 10 11 12 13 14 15 16 17 18 19 20 21 22 23 24 25 26 27 28 29 30 31 32 33 34 35 36 37 38 39 40 41 42 43 44 45 46 47 48 49 50

000
ASUS45 KBOU 030607
RWRCO

WEATHER ROUNDUP FOR COLORADO
NATIONAL WEATHER SERVICE DENVER/BOULDER CO
1200 AM MDT WED JUN 03 2015

NOTE: "FAIR" INDICATES FEW OR NO CLOUDS BELOW 12000 FEET WITH NO
SIGNIFICANT WEATHER AND/OR OBSTRUCTIONS TO VISIBILITY.

COZ001>005-013-030-031-030700-
...NORTHWEST COLORADO...

CITY           SKY/WX    TMP DP  RH WIND       PRES   REMARKS
CRAIG          CLEAR     48  39  71 CALM      30.03S
HAYDEN         CLEAR     54  30  40 E3        30.05S
MEEKER         CLEAR     50  36  58 NE5       30.05S
MOUNT WERNER   NOT AVBL
STEAMBOAT SPGS CLEAR     49  34  56 CALM      30.08S
WALDEN         CLEAR     41  32  70 SE10      30.15F
$$

COZ006>008-011-030700-
...WEST CENTRAL VALLEYS...

CITY           SKY/WX    TMP DP  RH WIND       PRES   REMARKS
GRAND JUNCTION CLEAR     61  25  25 E6        29.92F
MONTROSE       CLEAR     60  28  29 SE10      30.04S
EAGLE          CLEAR     64  37  36 E8        30.10S
RIFLE          CLEAR     56  36  47 CALM      30.00R
DELTA          CLEAR     63  28  26 NE8       29.99R
NUCLA          CLEAR     61  25  25 E10       30.06R
$$

COZ017>023-064>068-030700-
...SOUTHWEST COLORADO...

CITY           SKY/WX    TMP DP  RH WIND       PRES   REMARKS
DURANGO        CLEAR     52  32  46 N5        30.10S
CORTEZ         CLEAR     51  33  50 CALM      30.05S
PAGOSA SPRINGS CLEAR     49  32  52 CALM      30.19S
TELLURIDE      CLEAR     53  22  30 SE6       30.29S
WOLF CREEK PAS NOT AVBL
$$

COZ009-010-012-014-032>034-037-058>063-030700-
...CENTRAL COLORADO...

CITY           SKY/WX    TMP DP  RH WIND       PRES   REMARKS
ASPEN          PTCLDY    49  27  42 SW9       30.17S
BUENA VISTA    PTCLDY    55  20  26 N6        30.17S
COPPER MTN     CLEAR     46  10  23 W17G24    30.44S
BERTHOUD PASS  FAIR      37  32  81 W21G31    30.46S
COTTONWOOD PAS NOT AVBL
GUNNISON       CLEAR     48  27  43 N5        30.21S
KREMMLING      CLEAR     48  34  57 CALM      30.14S
LEADVILLE      PTCLDY    40  21  46 CALM      30.29F
MONARCH PASS   CLEAR     45  14  29 W24       30.54S
SALIDA         PTCLDY    64  15  15 N9        30.21S
SUNLIGHT       CLEAR     46  16  29 CALM      30.37S
WILKERSON PASS CLEAR     48  12  23 W10G17    30.40S
$$

COZ069>075-030700-
...SAN LUIS VALLEY/SANGRE DE CRISTO MOUNTAINS...

CITY           SKY/WX    TMP DP  RH WIND       PRES   REMARKS
ALAMOSA        CLEAR     48  29  47 SW7       30.15S
LA VETA PASS   CLEAR    N/A N/A N/A MISG      30.29F
SAGUACHE       CLEAR     59  21  23 NW14      30.17S
$$

COZ035-036-038>040-030700-
...NORTHERN COLORADO FRONT RANGE...

CITY           SKY/WX    TMP DP  RH WIND       PRES   REMARKS
DENVER INTL AP PTCLDY    68  42  38 NW12      29.92R
DMNS CITY PARK   N/A     67  37  32 N6        29.93R
AURORA         NOT AVBL
FRONT RANGE AP CLEAR     61  48  63 W9        29.93R
ERIE MUNI ARPT CLEAR     59  43  55 CALM      29.92R
BOULDER MUN AP CLEAR     68  30  24 E5        29.93R
CENTENNIAL     CLEAR     63  41  44 W7        29.96R
BROOMFIELD     CLEAR     70  28  21 NW14      29.95R
FORT COLLINS   CLEAR     63  50  63 N7        29.92F
LONGMONT       CLEAR     65  38  36 N5        29.93S
$$

COZ041-046-047-076>085-087-088-030700-
...PIKES PEAK/PALMER DIVIDE AND SOUTHERN FOOTHILLS...

CITY           SKY/WX    TMP DP  RH WIND       PRES   REMARKS
COLO. SPRINGS  CLEAR     63  46  54 N6        29.98F
A. F. ACADEMY  CLEAR     56  38  50 N8        30.01F
ELLICOTT       CLEAR    N/A N/A N/A N3        29.96F
FALCON         CLEAR     58  43  58 NW8       30.04S
FORT CARSON    NOT AVBL
LIMON          CLEAR     54  52  93 MISG      29.91F
MONUMENT HILL  CLEAR     55  43  62 SE9       30.06R
TRINIDAD       CLEAR     62  34  35 W14       29.97S
$$

COZ042>045-048>051-090-091-030700-
...NORTHEAST COLORADO...

CITY           SKY/WX    TMP DP  RH WIND       PRES   REMARKS
GREELEY ARPT   CLEAR     61  54  77 N8        29.90S
AKRON          CLEAR     66  54  65 S6        29.86R
BURLINGTON     CLEAR     66  55  67 S12       29.84R
WRAY           PTCLDY    68  59  72 E6        29.81R
STERLING       CLEAR     64  59  82 N9        29.83R
HOLYOKE        NOT AVBL
FORT MORGAN    CLEAR     63  55  74 NW10      29.87
$$

COZ086-089-092>099-030700-
...SOUTHEAST COLORADO...

CITY           SKY/WX    TMP DP  RH WIND       PRES   REMARKS
PUEBLO         CLEAR     62  52  69 W6        29.86R
LA JUNTA       CLEAR     71  46  40 SW16      29.81R
LAMAR          CLEAR     75  57  53 S22       29.76F
SPRINGFIELD      N/A     67  56  67 S16       29.88S
$$


USA.gov is the U.S. government's official web portal to all federal, state and local government web resources and services.